Location: Plainartige
(45.6866°N, 1.7993°E)
Time: 14:31:52
(UTC+00:00)

Resurs 01 Rocket - Pass Details

Date: 03 March 2021
Orbit: 635 x 643 km, 98.0° (Epoch: 11 April)

Event Time Altitude Azimuth Distance (km) Brightness Sun altitude
Exits shadow 19:12:41 16° 46° (NE) 1,674 3.4 -16.5°
Drops below altitude 10° 19:14:33 10° 22° (NNE) 2,033 4.1 -16.8°
Sets 19:17:25 0° 2° (N) 2,948 5.1 -17.3°
